GW7365 Weather Reports


Display with metric or nautical units.
time (UTC)temp
F
wind
direction
speed
MPH
gust
MPH
rain 1hr
in
rain 24hr
in
rain mn
in
humidity
%
barometer
mb
20260506174432 54 30 4.0 6.0 0.00 0.06 0.06 63 1010.0
20260506173933 54 30 4.0 6.0 0.00 0.07 0.06 63 1010.0
20260506173432 54 28 4.0 6.0 0.00 0.07 0.06 63 1009.9
20260506172932 54 26 4.0 6.0 0.00 0.07 0.06 62 1009.9
20260506172431 54 33 4.0 6.0 0.00 0.07 0.06 62 1009.8
20260506171931 55 35 4.0 6.0 0.00 0.07 0.06 58 1009.7
20260506171431 55 63 4.0 6.0 0.00 0.07 0.06 58 1009.7
20260506170932 55 63 4.0 7.0 0.00 0.07 0.06 59 1009.7
20260506170438 55 43 4.0 7.0 0.00 0.07 0.06 58 1009.6
20260506165938 55 30 4.0 7.0 0.00 0.07 0.06 59 1009.6
20260506165435 55 38 4.0 7.0 0.00 0.07 0.06 60 1009.6
20260506164932 55 37 5.0 8.0 0.00 0.07 0.06 62 1009.6
20260506164437 55 65 6.0 9.0 0.00 0.08 0.06 57 1009.6
20260506164430 55 34 6.0 9.0 0.00 0.08 0.06 60 1009.6
20260506163427 55 38 6.0 9.0 0.00 0.08 0.06 55 1009.6
20260506162928 55 44 6.0 11.0 0.00 0.08 0.06 57 1009.6
20260506162428 55 52 6.0 11.0 0.00 0.08 0.06 59 1009.6
20260506161928 55 58 6.0 9.0 0.00 0.09 0.06 57 1009.6
20260506161427 55 33 6.0 11.0 0.00 0.09 0.06 56 1009.5
20260506160928 55 43 7.0 12.0 0.00 0.09 0.06 54 1009.5
20260506160427 55 48 8.0 12.0 0.00 0.09 0.06 57 1009.5
20260506155926 55 44 8.0 15.0 0.00 0.09 0.06 57 1009.5
20260506155425 55 63 8.0 15.0 0.00 0.09 0.06 58 1009.6
20260506155159 55 34 8.0 16.0 0.00 0.09 0.06 58 1009.5
20260506154925 55 38 8.0 13.0 0.00 0.09 0.06 59 1009.6
20260506153920 55 41 9.0 16.0 0.00 0.09 0.06 57 1009.5
20260506153419 55 17 9.0 15.0 0.00 0.09 0.06 60 1009.5
20260506152916 55 33 8.0 13.0 0.00 0.09 0.06 59 1009.5
20260506152416 55 12 7.0 13.0 0.00 0.09 0.06 58 1009.5
20260506152147 55 37 7.0 13.0 0.00 0.09 0.06 57 1009.6
20260506151417 55 31 7.0 13.0 0.00 0.09 0.06 57 1009.5
20260506150917 55 48 8.0 13.0 0.00 0.09 0.06 58 1009.5
20260506150417 55 57 8.0 12.0 0.00 0.09 0.06 56 1009.5
20260506150148 55 38 9.0 17.0 0.00 0.09 0.06 57 1009.5
20260506145414 55 43 10.0 19.0 0.00 0.09 0.06 57 1009.4
20260506144911 55 35 10.0 19.0 0.00 0.09 0.06 57 1009.4
20260506144408 55 37 8.0 13.0 0.00 0.09 0.06 57 1009.4
20260506143908 55 46 8.0 12.0 0.00 0.09 0.06 57 1009.4
20260506143406 55 37 8.0 13.0 0.00 0.09 0.06 59 1009.4
20260506142906 55 56 8.0 14.0 0.00 0.09 0.06 56 1009.3
20260506142406 54 42 8.0 14.0 0.00 0.09 0.06 58 1009.4
20260506141906 54 37 9.0 14.0 0.00 0.09 0.06 57 1009.4
20260506141406 54 42 9.0 17.0 0.00 0.09 0.06 58 1009.5
20260506141137 54 69 11.0 19.0 0.00 0.09 0.06 58 1009.4
20260506140407 54 34 11.0 19.0 0.00 0.09 0.06 58 1009.3
20260506135907 55 36 9.0 16.0 0.00 0.09 0.06 56 1009.4
20260506135403 55 39 9.0 16.0 0.00 0.09 0.06 57 1009.4
20260506134902 55 27 9.0 16.0 0.00 0.09 0.06 55 1009.3
20260506134636 55 60 9.0 16.0 0.00 0.09 0.06 53 1009.3
20260506133900 55 31 9.0 16.0 0.00 0.09 0.06 53 1009.2
20260506133400 56 36 9.0 16.0 0.00 0.09 0.06 54 1009.3
20260506132858 55 31 12.0 24.0 0.00 0.09 0.06 53 1009.2
20260506132357 55 38 16.0 24.0 0.00 0.09 0.06 52 1009.1
20260506131855 55 16 18.0 26.0 0.00 0.09 0.06 51 1009.1
20260506131355 55 23 18.0 26.0 0.00 0.09 0.06 52 1008.8
20260506130855 55 31 17.0 24.0 0.00 0.09 0.06 52 1008.9
20260506130356 55 25 14.0 21.0 0.00 0.09 0.05 52 1009.0
20260506125856 56 27 13.0 23.0 0.00 0.09 0.05 53 1009.0
20260506125632 56 36 14.0 23.0 0.00 0.09 0.05 52 1008.9
20260506124856 56 21 15.0 21.0 0.00 0.09 0.05 52 1008.9
20260506124354 56 14 14.0 21.0 0.00 0.09 0.05 52 1008.8
20260506123855 56 32 12.0 21.0 0.00 0.09 0.05 58 1008.7
20260506123355 56 39 12.0 20.0 0.00 0.09 0.05 60 1008.6
20260506122855 55 28 13.0 20.0 0.00 0.09 0.05 62 1008.7
20260506122354 55 29 11.0 19.0 0.00 0.09 0.05 60 1008.7
20260506122123 55 11 9.0 15.0 0.00 0.09 0.05 60 1008.7
20260506121350 55 11 9.0 14.0 0.00 0.09 0.05 63 1008.8
20260506120849 54 9 9.0 14.0 0.00 0.09 0.05 63 1008.8
20260506120350 54 5 8.0 11.0 0.00 0.09 0.05 66 1008.8
20260506115849 54 3 8.0 12.0 0.00 0.09 0.05 70 1008.8
20260506115350 54 20 9.0 15.0 0.00 0.09 0.05 69 1008.8
20260506114849 54 7 10.0 15.0 0.00 0.09 0.05 69 1008.8
20260506114350 54 11 11.0 16.0 0.00 0.09 0.05 70 1008.8
20260506113850 54 10 11.0 16.0 0.00 0.09 0.05 71 1008.7
20260506113350 53 6 11.0 16.0 0.00 0.09 0.05 72 1008.8
20260506112850 53 3 10.0 18.0 0.00 0.09 0.05 74 1008.9
20260506112350 53 16 12.0 18.0 0.00 0.09 0.05 74 1008.9
20260506111849 53 11 12.0 17.0 0.00 0.09 0.05 74 1008.8
20260506111347 53 1 12.0 18.0 0.00 0.09 0.05 75 1008.8
20260506110848 53 6 12.0 18.0 0.00 0.09 0.05 76 1008.7
20260506110344 53 0 13.0 19.0 0.00 0.09 0.05 77 1008.8
20260506105845 53 21 14.0 25.0 0.00 0.09 0.05 77 1008.7
20260506105345 53 18 15.0 25.0 0.00 0.09 0.05 78 1008.6
20260506104844 53 13 15.0 21.0 0.00 0.09 0.05 76 1008.7
20260506104345 53 8 15.0 24.0 0.00 0.09 0.05 77 1008.5
20260506103845 54 13 17.0 24.0 0.00 0.09 0.05 77 1008.6
20260506103621 54 9 17.0 24.0 0.00 0.09 0.05 74 1008.2
20260506103616 54 8 16.0 22.0 0.01 0.09 0.05 73 1008.5
20260506102343 55 6 14.0 21.0 0.01 0.09 0.05 71 1008.5
20260506101842 55 13 13.0 17.0 0.02 0.09 0.05 68 1008.4
20260506101339 55 9 14.0 22.0 0.02 0.09 0.05 65 1008.4
20260506100836 55 4 15.0 22.0 0.02 0.08 0.05 67 1008.2
20260506100604 55 6 14.0 22.0 0.02 0.08 0.05 68 1008.1
20260506095834 55 20 14.0 22.0 0.02 0.08 0.05 68 1008.1
20260506095337 56 33 15.0 22.0 0.04 0.08 0.05 65 1008.3
20260506094836 56 16 14.0 22.0 0.04 0.08 0.05 65 1008.1
20260506094335 56 30 13.0 25.0 0.04 0.08 0.05 65 1008.0
20260506093835 56 43 16.0 28.0 0.04 0.08 0.05 64 1008.1
20260506093601 55 28 19.0 28.0 0.04 0.08 0.05 64 1008.1
20260506092835 55 25 20.0 28.0 0.04 0.08 0.04 64 1007.9
20260506092335 55 16 17.0 26.0 0.04 0.07 0.04 66 1007.7
20260506091835 55 14 15.0 23.0 0.03 0.07 0.03 67 1007.7
20260506091336 55 29 14.0 22.0 0.03 0.07 0.03 67 1008.0
20260506090833 55 27 16.0 26.0 0.03 0.07 0.03 65 1007.8
20260506090329 55 31 19.0 28.0 0.02 0.06 0.02 68 1007.9
20260506085826 55 32 18.0 28.0 0.02 0.06 0.02 66 1007.8
20260506085322 55 30 15.0 26.0 0.01 0.05 0.01 67 1007.5
20260506084823 55 15 14.0 26.0 0.00 0.04 0.01 66 1007.9
20260506084322 55 44 16.0 24.0 0.00 0.04 0.00 68 1007.5
20260506083823 55 22 18.0 24.0 0.00 0.04 0.00 67 1007.8
20260506083323 55 16 17.0 23.0 0.00 0.04 0.00 67 1007.9
20260506082823 54 10 15.0 23.0 0.00 0.04 0.00 70 1007.6
20260506082323 54 7 13.0 19.0 0.00 0.04 0.00 76 1007.8
20260506081822 54 358 13.0 17.0 0.00 0.04 0.00 78 1007.7
20260506081333 54 336 11.0 16.0 0.00 0.04 0.00 78 1007.8
20260506081325 54 8 12.0 17.0 0.00 0.04 0.00 77 1007.7
20260506080323 54 14 10.0 15.0 0.00 0.04 0.00 78 1007.8
20260506073320 52 14 10.0 17.0 0.00 0.04 0.00 82 1007.6
20260506072821 52 327 9.0 13.0 0.00 0.04 0.00 87 1007.7
20260506072321 52 357 10.0 15.0 0.00 0.04 0.00 87 1007.8
20260506071821 51 343 10.0 16.0 0.00 0.04 0.00 88 1007.8
20260506071320 51 335 11.0 17.0 0.00 0.04 0.00 88 1007.7
20260506070821 51 337 12.0 17.0 0.00 0.04 0.00 88 1007.7
20260506070559 51 339 11.0 16.0 0.00 0.04 0.00 88 1007.7
20260506062315 50 330 10.0 16.0 0.00 0.04 0.00 88 1007.6
20260506061816 50 352 9.0 14.0 0.00 0.04 0.00 89 1007.5
20260506061316 50 344 9.0 14.0 0.00 0.04 0.00 89 1007.5
20260506060815 50 341 9.0 14.0 0.00 0.04 0.00 89 1007.5
20260506060547 50 343 9.0 14.0 0.00 0.04 0.00 89 1007.6
20260506051303 50 345 9.0 14.0 0.00 0.04 0.00 91 1007.4
20260506050803 50 331 8.0 12.0 0.00 0.04 0.00 91 1007.4
20260506050304 49 26 8.0 12.0 0.00 0.04 0.00 92 1007.5
20260506044804 49 355 6.0 10.0 0.00 0.04 0.00 97 1007.5
20260506044302 49 339 6.0 10.0 0.00 0.04 0.00 98 1007.6
20260506043803 49 354 7.0 11.0 0.00 0.04 0.00 98 1007.6
20260506043302 49 321 8.0 12.0 0.00 0.04 0.00 97 1007.7
20260506042803 49 330 9.0 12.0 0.00 0.04 0.00 96 1007.7
20260506042305 49 339 8.0 12.0 0.00 0.04 0.00 95 1007.6
20260506041802 49 325 7.0 11.0 0.00 0.04 0.00 93 1007.6
20260506041303 49 343 6.0 9.0 0.00 0.04 0.00 93 1007.7
20260506040803 49 324 6.0 9.0 0.00 0.04 0.00 93 1007.6
20260506040303 49 340 6.0 9.0 0.00 0.04 0.00 92 1007.7
20260506035802 49 344 6.0 10.0 0.00 0.04 0.00 92 1007.7
20260506035305 49 353 8.0 12.0 0.00 0.04 0.00 92 1007.7
20260506034803 49 6 9.0 13.0 0.00 0.04 0.00 91 1007.8
20260506034303 49 12 9.0 14.0 0.00 0.04 0.00 92 1007.8
20260506034037 49 9 9.0 14.0 0.00 0.04 0.00 91 1007.8
20260506033302 49 6 10.0 14.0 0.00 0.04 0.00 91 1007.8
20260506032803 48 8 10.0 14.0 0.00 0.04 0.00 91 1007.8
20260506032305 48 12 10.0 16.0 0.00 0.04 0.00 92 1007.8
20260506031802 48 12 11.0 16.0 0.00 0.04 0.00 92 1007.9
20260506031302 49 18 12.0 17.0 0.00 0.04 0.00 90 1007.9
20260506031040 49 11 13.0 19.0 0.00 0.04 0.00 88 1007.9
20260506030302 49 15 12.0 19.0 0.00 0.04 0.00 88 1007.8
20260506025811 49 10 14.0 20.0 0.00 0.04 0.00 88 1007.9
20260506025308 49 9 14.0 20.0 0.00 0.04 0.00 86 1007.8
20260506024805 49 20 14.0 20.0 0.00 0.04 0.00 87 1008.0
20260506024303 49 10 15.0 21.0 0.00 0.04 0.00 86 1007.9
20260506023803 49 12 15.0 21.0 0.00 0.04 0.00 85 1008.0
20260506023304 49 9 14.0 20.0 0.00 0.04 0.00 84 1007.8
20260506022803 49 4 15.0 24.0 0.00 0.04 0.00 87 1007.9
20260506022305 49 3 17.0 24.0 0.00 0.04 0.00 86 1008.1
20260506021801 50 12 14.0 23.0 0.00 0.04 0.00 85 1007.7
20260506021301 50 17 9.0 17.0 0.00 0.04 0.00 86 1008.0
20260506021034 50 10 8.0 14.0 0.00 0.04 0.00 88 1008.1
20260506020301 50 35 10.0 16.0 0.00 0.04 0.00 87 1008.1
20260506015802 50 15 12.0 17.0 0.00 0.04 0.00 86 1008.0
20260506015305 50 4 12.0 17.0 0.00 0.04 0.00 86 1007.9
20260506014802 50 3 12.0 17.0 0.00 0.04 0.00 86 1007.9
20260506014302 50 4 12.0 17.0 0.00 0.04 0.00 87 1008.0
20260506013801 50 358 12.0 17.0 0.00 0.04 0.00 86 1008.0
20260506013304 50 7 12.0 17.0 0.00 0.04 0.00 87 1007.9
20260506012803 50 359 11.0 15.0 0.00 0.04 0.00 87 1008.0
20260506012301 50 351 10.0 14.0 0.00 0.04 0.00 87 1008.1
20260506011800 49 2 9.0 14.0 0.00 0.04 0.00 87 1008.2
20260506011301 49 358 9.0 14.0 0.00 0.04 0.00 87 1008.2
20260506010757 49 358 8.0 13.0 0.00 0.04 0.00 88 1008.2
20260506010257 49 311 8.0 11.0 0.00 0.04 0.00 87 1008.2
20260506005757 49 29 8.0 11.0 0.00 0.04 0.00 87 1008.3
20260506005258 49 349 8.0 12.0 0.00 0.04 0.00 87 1008.4
20260506004757 49 1 8.0 12.0 0.00 0.04 0.00 87 1008.4
20260506004256 49 14 8.0 11.0 0.00 0.04 0.00 89 1008.5
20260506003756 48 6 8.0 11.0 0.00 0.04 0.00 89 1008.5
20260506003255 48 359 8.0 11.0 0.00 0.04 0.00 89 1008.6
20260506002755 48 339 8.0 11.0 0.00 0.04 0.00 89 1008.6
20260506002252 48 8 7.0 11.0 0.00 0.04 0.00 90 1008.6
20260506001749 47 358 6.0 9.0 0.00 0.04 0.00 90 1008.7
20260506001249 47 337 6.0 9.0 0.00 0.04 0.00 90 1008.7
20260506000745 47 335 6.0 9.0 0.00 0.04 0.00 90 1008.8
20260506000247 47 333 7.0 9.0 0.00 0.04 0.00 89 1008.7
20260505235745 47 341 7.0 10.0 0.00 0.04 0.00 89 1008.8
20260505235515 47 349 7.0 10.0 0.00 0.04 0.00 88 1008.9
20260505234745 47 328 6.0 9.0 0.00 0.04 0.00 87 1008.9
20260505234246 47 324 6.0 9.0 0.00 0.04 0.00 87 1008.9
20260505233746 47 331 6.0 9.0 0.00 0.04 0.00 87 1008.9
20260505233515 48 323 6.0 9.0 0.00 0.04 0.00 87 1009.0
20260505232746 48 327 7.0 10.0 0.00 0.04 0.00 87 1009.1
20260505232514 48 340 8.0 12.0 0.00 0.04 0.00 87 1009.1
20260505231746 48 358 9.0 12.0 0.00 0.04 0.00 86 1009.2
20260505231246 48 8 9.0 12.0 0.00 0.04 0.00 85 1009.1
20260505230746 48 11 9.0 13.0 0.00 0.04 0.00 84 1009.2
20260505230247 48 10 9.0 13.0 0.00 0.04 0.00 84 1009.2
20260505230021 48 20 9.0 13.0 0.00 0.04 0.00 84 1009.3
20260505225244 48 10 9.0 13.0 0.00 0.04 0.00 83 1009.3
20260505224743 47 18 9.0 11.0 0.00 0.04 0.00 83 1009.2
20260505224243 47 12 8.0 10.0 0.00 0.04 0.00 84 1009.3
20260505223744 47 19 8.0 10.0 0.00 0.04 0.00 84 1009.3
20260505223244 47 16 7.0 10.0 0.00 0.04 0.00 84 1009.4
20260505222743 47 18 7.0 9.0 0.00 0.04 0.00 84 1009.4
20260505222244 47 15 7.0 10.0 0.00 0.04 0.00 85 1009.5
20260505221744 47 26 8.0 10.0 0.00 0.04 0.00 83 1009.4
20260505221510 48 20 8.0 11.0 0.00 0.04 0.00 82 1009.5
20260505220741 48 17 8.0 11.0 0.00 0.04 0.00 82 1009.5
20260505220251 49 13 10.0 13.0 0.00 0.04 0.04 81 1009.5
20260505220247 48 11 9.0 13.0 0.00 0.04 0.00 82 1009.5
20260505215238 49 13 11.0 14.0 0.00 0.04 0.04 80 1009.4
20260505214736 49 4 11.0 15.0 0.00 0.04 0.04 80 1009.4
20260505214235 49 12 11.0 15.0 0.00 0.04 0.04 78 1009.5
20260505213736 49 1 10.0 16.0 0.00 0.04 0.04 79 1009.5
20260505213236 50 9 10.0 16.0 0.00 0.04 0.04 78 1009.5
20260505212735 50 4 11.0 16.0 0.00 0.04 0.04 77 1009.5
20260505212502 50 11 11.0 16.0 0.00 0.04 0.04 78 1009.5
20260505212006 50 3 12.0 16.0 0.00 0.04 0.04 77 1009.5
20260505211236 50 0 12.0 16.0 0.00 0.04 0.04 77 1009.4
20260505210736 50 358 12.0 16.0 0.00 0.04 0.04 78 1009.5
20260505210238 50 9 12.0 16.0 0.00 0.04 0.04 78 1009.5
20260505205746 50 10 13.0 18.0 0.00 0.04 0.04 78 1009.7
20260505205740 50 3 12.0 15.0 0.00 0.04 0.04 78 1009.6
20260505204736 50 2 13.0 18.0 0.00 0.04 0.04 78 1009.7
20260505204233 50 11 13.0 19.0 0.00 0.04 0.04 78 1009.6
20260505203733 50 11 13.0 20.0 0.00 0.04 0.04 78 1009.7
20260505203234 50 22 13.0 20.0 0.00 0.04 0.04 78 1009.7
20260505202733 50 11 11.0 16.0 0.00 0.04 0.04 78 1009.6
20260505202512 50 359 12.0 17.0 0.00 0.04 0.04 80 1009.7
20260505201733 50 5 12.0 17.0 0.00 0.04 0.04 79 1009.7
20260505201512 50 5 13.0 17.0 0.00 0.04 0.04 79 1009.7
20260505200747 50 2 13.0 17.0 0.00 0.04 0.04 79 1009.7
20260505200742 50 7 13.0 17.0 0.00 0.04 0.04 79 1009.6
20260505195732 51 8 13.0 18.0 0.00 0.04 0.04 79 1009.6
20260505195512 51 7 13.0 18.0 0.00 0.04 0.04 79 1009.6
20260505194731 51 8 14.0 20.0 0.00 0.04 0.04 79 1009.5
20260505194228 51 10 15.0 20.0 0.00 0.04 0.04 79 1009.4
20260505193726 51 6 15.0 20.0 0.00 0.04 0.04 79 1009.3
20260505193222 51 3 14.0 19.0 0.00 0.04 0.04 78 1009.5
20260505192723 51 359 15.0 23.0 0.00 0.04 0.04 79 1009.4
20260505192222 51 0 17.0 25.0 0.00 0.04 0.04 78 1009.3
20260505191958 51 8 18.0 25.0 0.00 0.04 0.04 78 1009.2
20260505191223 52 10 17.0 25.0 0.01 0.04 0.04 78 1009.0
20260505190723 52 11 17.0 26.0 0.01 0.04 0.04 78 1008.9
20260505190514 52 11 17.0 26.0 0.01 0.04 0.04 78 1009.0
20260505185723 52 6 17.0 24.0 0.00 0.03 0.03 77 1009.0
20260505185222 52 13 16.0 21.0 0.00 0.03 0.03 77 1008.8
20260505184723 52 7 15.0 21.0 0.00 0.03 0.03 77 1008.9
20260505184223 52 12 16.0 23.0 0.00 0.03 0.03 77 1008.7
20260505183721 53 4 17.0 23.0 0.01 0.03 0.03 76 1008.8
20260505183218 53 10 16.0 22.0 0.01 0.03 0.03 76 1008.8
20260505182717 53 0 17.0 24.0 0.01 0.03 0.03 77 1008.7
20260505182217 53 5 17.0 24.0 0.01 0.03 0.03 76 1008.8
20260505181718 53 10 16.0 22.0 0.01 0.03 0.03 77 1008.9
20260505181218 53 11 15.0 22.0 0.01 0.03 0.03 76 1008.7
20260505180718 53 4 16.0 26.0 0.01 0.03 0.03 76 1008.9
20260505180218 54 14 18.0 27.0 0.01 0.03 0.03 74 1008.9
20260505175718 54 7 17.0 27.0 0.01 0.03 0.03 74 1008.6
20260505175216 54 10 17.0 28.0 0.01 0.03 0.03 74 1008.5